Location: Brachbach
(49.1847°N, 9.7240°E)
Time: 14:29:48
(UTC+00:00)

Nimbus 7 Rocket - Pass Details

Date: 16 August 2024
Orbit: 921 x 965 km, 99.4° (Epoch: 14 September)

Event Time Altitude Azimuth Distance (km) Brightness Sun altitude
Rises 22:18:34 0° 34° (NNE) 3,582 8.0 -25.8°
Reaches altitude 10° 22:23:45 10° 73° (ENE) 2,625 6.7 -26.0°
Maximum altitude 22:24:47 10° 83° (E) 2,591 6.6 -26.1°
Enters shadow 22:25:08 10° 87° (E) 2,594 6.6 -26.1°
